| time (UTC) | temp C | wind direction | speed KPH | gust KPH | rain 1hr cm | rain 24hr cm | rain mn cm | humidity % | barometer mb |
| 20260509144511 | 17 | 76 | 4.8 | 0.0 | 0.00 | 0.00 | 0.00 | 58 | 1012.9 |
| 20260509143007 | 16 | 88 | 1.6 | 0.0 | 0.00 | 0.00 | 0.00 | 60 | 1013.1 |
| 20260509141502 | 17 | 80 | 3.2 | 0.0 | 0.00 | 0.00 | 0.00 | 59 | 1013.1 |
| 20260509140106 | 17 | 64 | 3.2 | 0.0 | 0.00 | 0.00 | 0.00 | 58 | 1013.1 |
| 20260509134554 | 17 | 73 | 3.2 | 0.0 | 0.00 | 0.00 | 0.00 | 55 | 1013.1 |
| 20260509133050 | 17 | 34 | 4.8 | 0.0 | 0.00 | 0.00 | 0.00 | 57 | 1013.3 |
| 20260509131546 | 17 | 79 | 6.4 | 0.0 | 0.00 | 0.00 | 0.00 | 54 | 1013.4 |
| 20260509130041 | 17 | 35 | 6.4 | 0.0 | 0.00 | 0.00 | 0.00 | 55 | 1013.4 |
| 20260509124536 | 17 | 45 | 4.8 | 0.0 | 0.00 | 0.00 | 0.00 | 57 | 1013.7 |
| 20260509123033 | 17 | 55 | 4.8 | 0.0 | 0.00 | 0.00 | 0.00 | 54 | 1013.6 |
| 20260509121527 | 17 | 42 | 4.8 | 0.0 | 0.00 | 0.00 | 0.00 | 52 | 1013.6 |
| 20260509120026 | 17 | 69 | 6.4 | 0.0 | 0.00 | 0.00 | 0.00 | 50 | 1013.8 |
| 20260509114518 | 17 | 21 | 4.8 | 0.0 | 0.00 | 0.00 | 0.00 | 53 | 1013.6 |
| 20260509113013 | 17 | 55 | 4.8 | 0.0 | 0.00 | 0.00 | 0.00 | 55 | 1014.0 |
| 20260509111510 | 17 | 79 | 4.8 | 0.0 | 0.00 | 0.00 | 0.00 | 53 | 1014.0 |
| 20260509110006 | 17 | 45 | 6.4 | 0.0 | 0.00 | 0.00 | 0.00 | 55 | 1013.9 |
| 20260509104601 | 16 | 85 | 6.4 | 0.0 | 0.00 | 0.00 | 0.00 | 56 | 1014.1 |
| 20260509103102 | 17 | 41 | 1.6 | 0.0 | 0.00 | 0.00 | 0.00 | 54 | 1014.3 |
| 20260509101558 | 16 | 41 | 4.8 | 0.0 | 0.00 | 0.00 | 0.00 | 53 | 1014.3 |
| 20260509100052 | 16 | 92 | 4.8 | 0.0 | 0.00 | 0.00 | 0.00 | 54 | 1014.3 |
| 20260509094543 | 16 | 66 | 3.2 | 0.0 | 0.00 | 0.00 | 0.00 | 53 | 1014.3 |
| 20260509093039 | 16 | 51 | 3.2 | 0.0 | 0.00 | 0.00 | 0.00 | 54 | 1014.4 |
| 20260509091536 | 16 | 58 | 3.2 | 0.0 | 0.00 | 0.00 | 0.00 | 55 | 1014.4 |
| 20260509090032 | 16 | 20 | 3.2 | 0.0 | 0.00 | 0.00 | 0.00 | 56 | 1014.5 |
| 20260509084529 | 15 | 41 | 1.6 | 0.0 | 0.00 | 0.00 | 0.00 | 57 | 1014.5 |
| 20260509083021 | 15 | 71 | 1.6 | 0.0 | 0.00 | 0.00 | 0.00 | 58 | 1014.7 |
| 20260509081517 | 15 | 55 | 1.6 | 0.0 | 0.00 | 0.00 | 0.00 | 60 | 1014.8 |
| 20260509080013 | 15 | 71 | 1.6 | 0.0 | 0.00 | 0.00 | 0.00 | 59 | 1014.8 |
| 20260509074509 | 15 | 38 | 1.6 | 0.0 | 0.00 | 0.00 | 0.00 | 64 | 1015.0 |
| 20260509073015 | 15 | 23 | 1.6 | 0.0 | 0.00 | 0.00 | 0.00 | 57 | 1015.1 |
| 20260509071602 | 15 | 344 | 0.0 | 0.0 | 0.00 | 0.00 | 0.00 | 56 | 1015.1 |
| 20260509070059 | 14 | 344 | 0.0 | 0.0 | 0.00 | 0.00 | 0.00 | 54 | 1015.0 |
| 20260509064551 | 14 | 346 | 0.0 | 0.0 | 0.00 | 0.00 | 0.00 | 50 | 1015.1 |
| 20260509063047 | 13 | 346 | 0.0 | 0.0 | 0.00 | 0.00 | 0.00 | 48 | 1015.1 |
| 20260509061542 | 13 | 346 | 0.0 | 0.0 | 0.00 | 0.00 | 0.00 | 52 | 1014.9 |
| 20260509060047 | 13 | 346 | 0.0 | 0.0 | 0.00 | 0.00 | 0.00 | 51 | 1015.0 |
| 20260509054534 | 13 | 346 | 0.0 | 0.0 | 0.00 | 0.00 | 0.00 | 50 | 1015.1 |
| 20260509053033 | 13 | 346 | 0.0 | 0.0 | 0.00 | 0.00 | 0.00 | 50 | 1015.1 |
| 20260509051526 | 12 | 346 | 0.0 | 0.0 | 0.00 | 0.00 | 0.00 | 53 | 1015.0 |
| 20260509050021 | 12 | 346 | 0.0 | 0.0 | 0.00 | 0.00 | 0.00 | 56 | 1014.9 |
| 20260509044523 | 12 | 346 | 0.0 | 0.0 | 0.00 | 0.00 | 0.00 | 56 | 1014.8 |
| 20260509043022 | 12 | 346 | 0.0 | 0.0 | 0.00 | 0.00 | 0.00 | 57 | 1014.7 |
| 20260509041509 | 12 | 350 | 0.0 | 0.0 | 0.00 | 0.00 | 0.00 | 56 | 1014.6 |
| 20260509040005 | 12 | 350 | 0.0 | 0.0 | 0.00 | 0.00 | 0.00 | 53 | 1014.6 |
| 20260509034604 | 12 | 350 | 0.0 | 0.0 | 0.00 | 0.00 | 0.00 | 55 | 1014.5 |
| 20260509033056 | 12 | 350 | 0.0 | 0.0 | 0.00 | 0.00 | 0.00 | 54 | 1014.5 |
| 20260509031553 | 12 | 350 | 0.0 | 0.0 | 0.00 | 0.00 | 0.00 | 56 | 1014.5 |
| 20260509030049 | 12 | 350 | 1.6 | 0.0 | 0.00 | 0.00 | 0.00 | 57 | 1014.3 |
| 20260509024547 | 12 | 347 | 1.6 | 0.0 | 0.00 | 0.00 | 0.00 | 58 | 1014.3 |
| 20260509023044 | 12 | 356 | 4.8 | 0.0 | 0.00 | 0.00 | 0.00 | 59 | 1014.3 |
| 20260509021539 | 12 | 336 | 6.4 | 0.0 | 0.00 | 0.00 | 0.00 | 56 | 1014.3 |
| 20260509020036 | 12 | 319 | 1.6 | 0.0 | 0.00 | 0.00 | 0.00 | 64 | 1014.4 |
| 20260509014529 | 12 | 320 | 6.4 | 0.0 | 0.00 | 0.00 | 0.00 | 69 | 1014.3 |
| 20260509013024 | 12 | 318 | 6.4 | 0.0 | 0.00 | 0.00 | 0.00 | 71 | 1014.2 |
| 20260509011519 | 12 | 320 | 3.2 | 0.0 | 0.00 | 0.00 | 0.00 | 74 | 1014.2 |
| 20260509010022 | 12 | 342 | 0.0 | 0.0 | 0.00 | 0.00 | 0.00 | 71 | 1014.2 |
| 20260509004512 | 12 | 342 | 0.0 | 0.0 | 0.00 | 0.00 | 0.00 | 71 | 1014.2 |
| 20260509003017 | 12 | 342 | 0.0 | 0.0 | 0.00 | 0.00 | 0.00 | 70 | 1014.1 |
| 20260509001504 | 12 | 342 | 0.0 | 0.0 | 0.00 | 0.00 | 0.00 | 71 | 1014.0 |
| 20260509000100 | 12 | 342 | 0.0 | 0.0 | 0.00 | 0.00 | 0.00 | 72 | 1014.1 |
| 20260508234554 | 12 | 342 | 1.6 | 0.0 | 0.00 | 0.00 | 0.00 | 71 | 1014.1 |
| 20260508233051 | 12 | 344 | 0.0 | 0.0 | 0.00 | 0.00 | 0.00 | 74 | 1014.1 |
| 20260508231547 | 12 | 347 | 0.0 | 0.0 | 0.00 | 0.00 | 0.00 | 76 | 1014.2 |
| 20260508230045 | 12 | 347 | 3.2 | 0.0 | 0.00 | 0.00 | 0.00 | 75 | 1014.1 |
| 20260508224541 | 13 | 325 | 1.6 | 0.0 | 0.00 | 0.00 | 0.00 | 73 | 1014.1 |
| 20260508223042 | 13 | 295 | 0.0 | 0.0 | 0.00 | 0.00 | 0.00 | 70 | 1014.2 |
| 20260508221533 | 13 | 165 | 0.0 | 0.0 | 0.00 | 0.00 | 0.00 | 63 | 1014.2 |
| 20260508220032 | 13 | 162 | 0.0 | 0.0 | 0.00 | 0.00 | 0.00 | 66 | 1014.1 |
| 20260508214531 | 13 | 162 | 0.0 | 0.0 | 0.00 | 0.00 | 0.00 | 53 | 1014.1 |
| 20260508213030 | 12 | 162 | 0.0 | 0.0 | 0.00 | 0.00 | 0.00 | 71 | 1013.9 |
| 20260508211518 | 12 | 161 | 0.0 | 0.0 | 0.00 | 0.00 | 0.00 | 80 | 1013.9 |
| 20260508210014 | 12 | 147 | 0.0 | 0.0 | 0.00 | 0.00 | 0.00 | 78 | 1013.9 |
| 20260508204520 | 12 | 144 | 0.0 | 0.0 | 0.00 | 0.00 | 0.00 | 77 | 1014.0 |
| 20260508203006 | 12 | 144 | 0.0 | 0.0 | 0.00 | 0.00 | 0.00 | 87 | 1014.1 |
| 20260508201502 | 12 | 140 | 0.0 | 0.0 | 0.00 | 0.00 | 0.00 | 91 | 1014.0 |
| 20260508200059 | 12 | 137 | 0.0 | 0.0 | 0.00 | 0.00 | 0.00 | 94 | 1014.0 |
| 20260508194609 | 12 | 131 | 1.6 | 0.0 | 0.00 | 0.00 | 0.00 | 93 | 1013.8 |
| 20260508193104 | 12 | 131 | 0.0 | 0.0 | 0.00 | 0.00 | 0.00 | 90 | 1013.7 |
| 20260508191546 | 12 | 55 | 0.0 | 0.0 | 0.00 | 0.00 | 0.00 | 87 | 1013.5 |
| 20260508190040 | 12 | 54 | 0.0 | 0.0 | 0.00 | 0.00 | 0.00 | 91 | 1013.5 |
| 20260508184537 | 12 | 54 | 0.0 | 0.0 | 0.00 | 0.00 | 0.00 | 89 | 1013.5 |
| 20260508183032 | 12 | 52 | 0.0 | 0.0 | 0.00 | 0.00 | 0.00 | 92 | 1013.3 |
| 20260508181528 | 12 | 52 | 0.0 | 0.0 | 0.00 | 0.00 | 0.00 | 94 | 1013.2 |
| 20260508180026 | 12 | 54 | 0.0 | 0.0 | 0.00 | 0.00 | 0.00 | 94 | 1013.2 |
| 20260508174519 | 12 | 54 | 0.0 | 0.0 | 0.00 | 0.00 | 0.00 | 94 | 1013.1 |
| 20260508173015 | 12 | 54 | 0.0 | 0.0 | 0.00 | 0.00 | 0.00 | 94 | 1013.1 |
| 20260508171514 | 12 | 54 | 0.0 | 0.0 | 0.00 | 0.00 | 0.00 | 93 | 1013.0 |
| 20260508170008 | 12 | 54 | 0.0 | 0.0 | 0.00 | 0.00 | 0.00 | 92 | 1013.0 |
| 20260508164504 | 12 | 54 | 0.0 | 0.0 | 0.00 | 0.00 | 0.00 | 91 | 1012.8 |
| 20260508163059 | 12 | 54 | 0.0 | 0.0 | 0.00 | 0.00 | 0.00 | 89 | 1012.8 |
| 20260508161557 | 13 | 54 | 0.0 | 0.0 | 0.00 | 0.00 | 0.00 | 89 | 1012.8 |
| 20260508160119 | 13 | 54 | 0.0 | 0.0 | 0.00 | 0.00 | 0.00 | 88 | 1012.8 |
| 20260508154547 | 13 | 54 | 0.0 | 0.0 | 0.00 | 0.00 | 0.00 | 88 | 1012.7 |
| 20260508153046 | 13 | 54 | 1.6 | 0.0 | 0.00 | 0.00 | 0.00 | 88 | 1012.7 |
| 20260508151541 | 13 | 35 | 3.2 | 0.0 | 0.00 | 0.00 | 0.00 | 87 | 1012.7 |
| 20260508150036 | 13 | 30 | 0.0 | 0.0 | 0.00 | 0.00 | 0.00 | 87 | 1012.6 |